User: anonymous
Location: Slanting_Bridge
(35.6330°N, 80.9830°W)
Time: 02:33:14
(UTC-04:00)
Language:

Hamsat - Orbit

View from above orbital plane
View from above orbital plane
View from above satellite
View from above satellite

Ground track
Ground track

The orbit data is extracted from the following two-line orbital elements,

1 28650U 05017B   14213.61921282  .00001761  00000-0  20827-3 0  8060
2 28650 097.5613 216.3181 0024887 012.0891 348.0917 14.85617840499970
Epoch (UTC): 01 August 2014 14:51:39
Eccentricity: 0.0024887
inclination: 97.5613°
perigee height: 594 km
apogee height: 629 km
right ascension of ascending node: 216.3181°
argument of perigee: 12.0891°
revolutions per day: 14.85617840
mean anomaly at epoch: 348.0917°
orbit number at epoch: 49997

The dashed part of the orbit path shows where the satellite is in the earth's shadow,  

DLR